*** The Vicarage Weather Feed ***

NOAA NWS Hourly Roundups by Site

Regional Weather Roundup for Omaha, NE

To Select Another Site Choose from List

Select Site:  

000
ASUS43 KOAX 240810
RWRNE

WEATHER ROUNDUP FOR NEBRASKA
NATIONAL WEATHER SERVICE OMAHA NE
300 AM CDT WED JUL 24 2019

NOTES: SATELLITE DATA IS BEING USED TO AUGMENT CLOUD COVER ABOVE
       12000 FEET.
       "FAIR" INDICATES FEW OR NO CLOUDS BELOW 12,000 FEET WITH NO
       SIGNIFICANT WEATHER AND/OR OBSTRUCTIONS TO VISIBILITY.


NEZ001>004-019>022-054>056-240900-
NEBRASKA PANHANDLE

CITY           SKY/WX    TMP DP  RH WIND       PRES   REMARKS
SCOTTSBLUFF    FAIR      64  60  87 E10       30.15F
ALLIANCE       FAIR      62  56  80 SE13      30.16F
CHADRON        FAIR      70  58  65 S15G26    30.09F
GORDON         FAIR      65  56  75 S6        30.17F
KIMBALL        FAIR      63  54  71 S8        30.21F
SIDNEY         FAIR      65  55  70 S14       30.20F
$$

NEZ057>060-069>072-079>082-240900-
SOUTHWEST NEBRASKA

CITY           SKY/WX    TMP DP  RH WIND       PRES   REMARKS
NORTH PLATTE   FAIR      62  57  83 SE7       30.21F
IMPERIAL       FAIR      60  55  83 SE8       30.21F
LEXINGTON      FAIR      61  57  88 SE8       30.23F
MCCOOK         FAIR      62  54  74 E8        30.21F
OGALLALA       FAIR      63  57  81 SE5       30.20F
$$

NEZ005>010-023>029-035>040-094-240900-
NORTH CENTRAL NEBRASKA

CITY           SKY/WX    TMP DP  RH WIND       PRES   REMARKS
VALENTINE      FAIR      68  57  68 S12G22    30.17F
AINSWORTH      FAIR      63  59  88 S10G17    30.19F
BROKEN BOW     MOCLDY    63  58  83 SE8       30.22F
O`NEILL        FAIR      59  56  89 S5        30.21F
ORD            FAIR      60  57  89 E3        30.20F
THEDFORD       FAIR      64  58  82 S9        30.21F
$$

NEZ041-046>049-061>064-073>077-083>087-240900-
SOUTH CENTRAL NEBRASKA

CITY           SKY/WX    TMP DP  RH WIND       PRES   REMARKS
GRAND ISLAND   FAIR      61  55  81 S6        30.23F
AURORA         FAIR      57  56  97 SE3       30.23F
HASTINGS       FAIR      64  56  75 S7        30.24S
HEBRON         FAIR      57  56  95 CALM      30.23S
HOLDREGE       FAIR      60  58  93 SE3       30.23S
KEARNEY        FAIR      60  56  86 SE7       30.24S
YORK           FAIR      59  55  88 CALM      30.23F
$$

NEZ011>018-030>034-042>045-240900-
NORTHEAST NEBRASKA

CITY           SKY/WX    TMP DP  RH WIND       PRES   REMARKS
NORFOLK        FAIR      61  56  83 S8        30.21F
ALBION         FAIR      58  56  94 CALM      30.23S
BLAIR          FAIR      63  57  82 CALM      30.22S
COLUMBUS       FAIR      60  55  83 CALM      30.22F
FREMONT        FAIR      62  58  86 CALM      30.22S
TEKAMAH        FAIR      57  55  93 CALM      30.21F
WAYNE          FAIR      56  53  92 S3        30.22S
$$

NEZ050>053-065>068-078-088>093-240900-
SOUTHEAST NEBRASKA

CITY           SKY/WX    TMP DP  RH WIND       PRES   REMARKS
LINCOLN        FAIR      63  56  78 CALM      30.23S
OMAHA EPPLEY   FAIR      66  59  78 CALM      30.21F
BEATRICE       MOCLDY    60  58  91 CALM      30.23S
FALLS CITY     MOCLDY    61  59  93 W3        30.20F
NEBRASKA CITY  FAIR      63  57  80 CALM      30.22F
PLATTSMOUTH    FAIR      64  59  86 CALM      30.21F
$$

NEZ044-045-051>053-067-240900-
OMAHA AREA

CITY           SKY/WX    TMP DP  RH WIND       PRES   REMARKS
OMAHA EPPLEY   FAIR      66  59  78 CALM      30.21F
BLAIR          FAIR      63  57  82 CALM      30.22S
FREMONT        FAIR      62  58  86 CALM      30.22S
MILLARD        FAIR      62  60  94 CALM      30.22S
OFFUTT AFB     PTCLDY    64  59  82 CALM      30.25S
PLATTSMOUTH    FAIR      64  59  86 CALM      30.21F
WAHOO          FAIR      61  58  88 CALM      30.22S
$$


 

View Past Reports for Omaha, NE.

Products Courtesy of NOAA-NWS
NWS Information Parsing Script by Ken True at Saratoga Weather - Script by SE Lincoln Weather.

This data is offered only as a general guide to local weather conditions. It should not be relied upon in lieu of officially disseminated weather information for determining possible risk to persons or property. This site, including all information contained therein, is made available as is without warranties of any kind, either express or implied. The Vicarage Weather Feed© includes links to other sites for user convenience only. The content of any linked third-party site is not controlled by The Vicarage Weather Feed©. Access to any third-party website through The Vicarage Weather Feed©, regardless of whether or not the third-party site is a linked site, is entirely at the users own risk. Externally sourced content or material is excluded from The Vicarage Weather Feed© copyright and is the copyright and property of the respective provider. Skywarn® and the Skywarn® logo are registered trademarks of the National Oceanic and Atmospheric Administration, used with permission.